Voltar ao catálogo

STARLINK-6038

AtivoComunicaçõesSSO
NORAD 56317·PAYLOAD·🇺🇸 United States

Lançado Apr 27, 2023 de Vandenberg Space Force Base

Loading…

Próximas Passagens (próximas 24 horas)

TLE

AtualizadoSource: CelesTrak SupGP

Época: Sep 14, 2026, 20:44 UTC

1 56317C 23058A   26257.86437500  .00059985  00000+0  18621-2 0  2577
2 56317  97.2847 254.6901 0001585  88.5445 171.3028 15.33407441    16

Acompanhe STARLINK-6038 em tempo real com AllMySat

Download on the App Store